Regional Weather Roundup
Issued by NWS Pendleton, OR

Home | Current Version | Previous Version | Text Only | Print | Product List | Glossary On
Versions: 1 2 3 4 5 6 7 8 9 10 11 12 13 14 15 16 17 18 19 20 21 22 23 24 25 26 27 28 29 30 31 32 33 34 35 36 37 38 39 40 41 42 43 44 45 46 47 48 49 50
964
ASUS46 KPDT 140825
RWRPDT
PENDLETON REGIONAL WEATHER ROUNDUP
NATIONAL WEATHER SERVICE PENDLETON OREGON
1200 AM PST SUN FEB 14 2016

NOTE: FAIR INDICATES FEW OR NO CLOUDS BELOW 12,000 FEET WITH NO
SIGNIFICANT WEATHER AND/OR OBSTRUCTIONS TO VISIBILITY.

# INDICATES UNOFFICIAL STATION AND DATA

WAZ520-140910-
EAST SLOPES OF WASHINGTON CASCADES

CITY            SKY/WX      TMP DP  RH  WIND    PRES   REMARKS
#BUMPING DAM    N/A         35  N/A N/A S2      N/A
#CLE ELUM HS    N/A         33  32  96  CALM    30.04S
#CLE ELUM 2NW   N/A         32  32  100 SW1     N/A
#CLE ELUM LAKE  N/A         33  32  96  CALM    30.11S
#CLIFFDEL 2NW   N/A         37  33  85  W7      N/A
#GLENWOOD       N/A         43  39  86  S2      30.17S
#MANASTASH CYN  N/A         32  29  89  CALM    30.01F
#NELSON         N/A         N/A N/A N/A CALM    30.04R
#NELSON 3SW     N/A         32  31  96  CALM    30.32S
#NILE           N/A         32  31  96  CALM    29.39S
#RONALD 2NW     N/A         33  N/A N/A CALM    29.94R
#SNOWDEN        N/A         38  35  89  CALM    N/A
#TEANAWAY 4NE   N/A         33  33  100 CALM    N/A
#TROUT LAKE 1NE N/A         36  35  96  W1      30.21R
#TROUT LAKE 1E  N/A         37  37  100 CALM    30.12F
$$

WAZ521-140910-
SIMCOE HIGHLANDS

CITY            SKY/WX      TMP DP  RH  WIND    PRES   REMARKS
#BICKLETON HS   N/A         41  34  76  W20G30  N/A    WCI 32
#CENTERVILLE 1SWN/A         38  35  89  CALM    30.14S
#GOLDENDALE     N/A         40  37  89  W8      N/A
#GOLDENDALE 1NE N/A         40  34  79  S2      N/A
#GOODNOE HILLS  N/A         41  36  82  W12     30.03F WCI 34
#LYLE 6NE       N/A         39  38  96  CALM    30.15R
$$

WAZ026-140910-
KITTITAS VALLEY

CITY            SKY/WX      TMP DP  RH  WIND    PRES   REMARKS
ELLENSBURG AP   CLOUDY      36  32  85  NW5     30.06S
#ELLENSBURG CWU N/A         33  31  92  CALM    30.07S
#ELLENSBURG 3NE N/A         33  32  96  CALM    30.06F
#ELLENSBURG     N/A         34  34  100 CALM    N/A
#ELLENSBURG 1E  N/A         31  N/A N/A CALM    N/A
#KITTITAS 4N    N/A         32  29  89  E1      30.09F
#KITTITAS 3S    N/A         32  30  92  CALM    30.12R
#THORP 6N       N/A         33  32  96  N7      30.12R
$$

WAZ027-140910-
YAKIMA VALLEY

CITY            SKY/WX      TMP DP  RH  WIND    PRES   REMARKS
SUNNYSIDE AP    MOCLDY      40  36  85  E7      30.11R
YAKIMA AIRPORT  CLOUDY      38  33  82  W8      30.09S
YAKIMA-VAGABOND MOCLDY      37  33  85  NW3     30.06S
#DONALD 2NE     N/A         43  28  55  N1      28.93F
#GRANDVIEW      N/A         43  36  76  CALM    30.14R
#MABTON         N/A         46  40  79  SE8     30.10S
#MOXEE 2E       N/A         39  28  64  E5      30.04R
#NACHES 2SW     N/A         37  35  92  CALM    30.06R
#OUTLOOK DOT    N/A         N/A N/A N/A W2      N/A
#SELAH 8E       N/A         37  33  85  NW3     N/A
#TERRACE HTS    N/A         42  36  79  CALM    30.08F
#TOPPENISH      N/A         43  37  79  CALM    30.01S
#WEST VALLEY    N/A         36  34  92  CALM    30.10S
#W YAKIMA       N/A         39  35  85  CALM    30.12F
#WHITE SWAN 5E  N/A         49  39  68  SW15G25 30.08F WCI 43
#WILEY CITY 3W  N/A         35  31  85  W1      30.05R
$$

WAZ028-140910-
LOWER COLUMBIA BASIN...WASHINGTON

CITY            SKY/WX      TMP DP  RH  WIND    PRES   REMARKS
PASCO           PTCLDY      46  39  76  S9      30.14S
PROSSER AWOS    N/A         46  39  76  S12     30.14R WCI 40
RICHLAND AWOS   PTCLDY      49  39  68  S13     30.12R WCI 44
#BENTON CITY    N/A         44  39  82  SW18G28 30.01R WCI 36
#CONNELL 5N     N/A         40  38  92  SW6     30.11S
#ELTOPIA 6NW    N/A         41  40  96  S3      29.07S
#KAHLOTUS       N/A         42  40  93  W12     30.10F WCI 35
#KENNEWICK 3S   N/A         44  40  86  S9      30.12S
#PATERSON       N/A         44  41  89  E1      30.15R
#PROSSER        N/A         42  38  86  S14     30.11S WCI 35
#SAGEMOOR 2W    N/A         42  39  89  SE3     29.97R
#TOUCHET 2S     N/A         49  42  77  S1      30.12F
#WEST PASCO     N/A         46  40  79  S2      30.11F
$$

WAZ029-140910-
FOOTHILLS OF THE BLUES...WASHINGTON

CITY            SKY/WX      TMP DP  RH  WIND    PRES   REMARKS
WALLA WALLA AP  CLOUDY      48  39  71  SW14    30.13F WCI 42
#CLYDE 6NW      N/A         42  39  89  SW12    30.12F WCI 35
#DAYTON SCHOOL  N/A         48  34  58  SW12G30 30.13F WCI 43
#LOWDEN 2SE     N/A         48  42  80  W3      30.11F
#PLEASANT VIEW 1N/A         40  38  92  S17G24  30.14F WCI 31
#PRESCOTT       N/A         45  41  86  SW2     30.13S
#WHITMAN COLLEGEN/A         49  41  74  S7      30.20F
#WAITSBURG 5S   N/A         46  40  79  S15     30.24F WCI 40
#WAITSBURG 8N   N/A         43  20  39  S16     29.97F WCI 35
#WALLA WALLA U  N/A         49  42  77  CALM    30.16F
#WHITMAN MISSIONN/A         49  42  77  CALM    30.17F
$$

WAZ030-140910-
BLUE MOUNTAINS...WASHINGTON

CITY            SKY/WX      TMP DP  RH  WIND    PRES   REMARKS
#DIXIE 5SE      N/A         42  37  82  S13     30.05F WCI 35
#SKI BLUEWOOD   N/A         34  32  92  N7      30.07F
$$

ORZ009-041-WAZ024-140910-
COLUMBIA RIVER GORGE

CITY            SKY/WX      TMP DP  RH  WIND    PRES   REMARKS
HOOD RIVER AP   CLOUDY      43  41  93  S3      30.17S
THE DALLES AP   MOCLDY      43  40  89  CALM    30.18S
#ARLINGTON AIRPON/A         43  39  86  CALM    30.18R
#ARLINGTON HS   N/A         46  39  76  CALM    30.08S
#CELILO DOT     N/A         44  37  76  SW2     N/A
#LYLE           N/A         44  42  93  CALM    30.19F
#MARYHILL 2W    N/A         41  41  100 CALM    N/A
#MOSIER 1S      N/A         41  37  86  CALM    30.17S
#MURDOCK        N/A         44  42  93  N1      30.15S
#RUFUS DOT      N/A         47  40  76  W6      N/A

$$

ORZ510-140910-
NORTH CENTRAL OREGON

CITY            SKY/WX      TMP DP  RH  WIND    PRES   REMARKS
#CHENOWITH 1W   N/A         39  38  96  CALM    N/A
#COW CYN RST AREN/A         43  37  79  SW9     N/A
#DUFUR 9E       N/A         39  35  85  SW2     30.21S
#GRASS VALLEY 1SN/A         40  36  85  SW22    30.16F WCI 30
#KENT DOT       N/A         41  33  73  N14     N/A    WCI 33
#MAUPIN SCHOOL  N/A         44  38  79  CALM    30.19F
#SHANIKO 4NW    N/A         39  36  89  SW5     30.13F
#TYGH VALLEY 2NEN/A         48  38  68  SW15    30.16F WCI 42
#WAPANITIA AIRPON/A         43  37  79  CALM    30.19F
#WASCO DOT      N/A         38  36  92  CALM    N/A
#WASCO 5NE      N/A         39  37  92  CALM    30.18R
$$

ORZ511-140910-
CENTRAL OREGON

CITY            SKY/WX      TMP DP  RH  WIND    PRES   REMARKS
BEND AIRPORT    CLOUDY      45  36  70  SW9     30.20S
MADRAS AIRPORT  CLOUDY      46  36  68  S18     30.19F WCI 39
PRINEVILLE AP   CLOUDY      41  37  86  CALM    30.22S
REDMOND AIRPORT CLOUDY      42  35  76  E6      30.20F
#ASHWOOD SCHOOL N/A         46  40  79  S6      30.13F
#BEND 6E        N/A         45  33  63  CALM    30.18S
#BEND 1SW       N/A         42  36  79  W3      N/A
#BEND-KIM LN    N/A         44  37  76  SW3     30.17S
#LAKE BILLY CHINN/A         47  N/A N/A S14     30.21F WCI 41
#MADRAS         N/A         47  36  65  S12     N/A    WCI 42
#PRINEVILLE 3N  N/A         41  38  89  CALM    30.25S
#WARM SPRINGS   N/A         43  38  82  CALM    30.15S

$$


ORZ509-140910-
EAST SLOPES OF OREGON CASCADES

CITY            SKY/WX      TMP DP  RH  WIND    PRES   REMARKS
SISTERS AWOS    N/A         48  37  65  SW9     30.14F
#BLUE BOX PASS  N/A         34  N/A N/A CALM    N/A
#BLACK BUTTE RNCN/A         42  38  86  SW1     30.20F
#CAMP SHERMAN   N/A         40  36  85  CALM    30.29F
#LA PINE DOT    N/A         39  33  79  SE1     N/A
#LA PINE 4NW    N/A         37  32  82  CALM    30.33F
#SISTERS AIRPOR N/A         45  41  86  N3      30.17S
#SISTERS ODOT   N/A         49  N/A N/A SE8     N/A
#SISTERS 3N     N/A         40  31  70  CALM    30.18S
#SUNRIVER       N/A         38  35  89  S2      30.30S
#SUTTLE LK DOT  N/A         N/A N/A N/A W1      N/A
#TUMALO 3W      N/A         43  36  76  SE2     30.11F
#WANOGA BUTTE D N/A         34  33  96  CALM    N/A

$$

ORZ044-140910-
LOWER COLUMBIA BASIN...OREGON

CITY            SKY/WX      TMP DP  RH  WIND    PRES   REMARKS
HERMISTON       CLOUDY      45  40  82  NW3     30.15S
#BOARDMAN SCHOOLN/A         44  41  89  SE1     30.17R
#BOARDMAN 8SW   N/A         44  40  86  SW3     30.16R
#ECHO 8SW       N/A         44  43  96  NW1     30.17R
#I-84 EX 198 DOTN/A         45  39  79  NE2     N/A
#IONE SCHOOL    N/A         44  28  53  SW10    30.12R
#IRRIGON 4NW    N/A         43  43  100 E5      N/A
#UMATILLA SCHOOLN/A         40  40  100 CALM    30.16S
#UMATILLA       N/A         43  38  82  CALM    30.10R
$$

ORZ507-140910-
NORTHERN FOOTHILLS OF THE BLUES

CITY            SKY/WX      TMP DP  RH  WIND    PRES   REMARKS
PENDLETON AIRPT CLOUDY      44  40  86  S6      30.14S
#ADAMS 3WNW     N/A         42  41  96  S2      30.17F
#ATHENA         N/A         46  40  79  W5      30.19F
#CAYUSE         N/A         48  40  74  SW6     30.15F
#HELIX SCHOOL   N/A         43  40  89  N8      30.16S
#HELIX 3N       N/A         43  40  89  S16G25  30.10S WCI 35
#HOLDMAN 5SE    N/A         45  42  89  SW3     30.14R
#HOLDMAN 6E     N/A         42  39  89  NW5     29.97S
#M-F GROVE ELEM N/A         50  39  66  S7      30.12S
#M-FREEWATER 5SEN/A         49  40  71  CALM    30.14S
#PENDLETON DNTN N/A         44  39  82  CALM    30.16F
#PDT AQUATIC CTRN/A         45  38  76  CALM    30.16S
#PDT SUNRIDGE   N/A         45  42  89  SE2     30.16F
#PENDLETON 7NW  N/A         44  40  86  CALM    32.08S
#PILOT ROCK     N/A         47  35  63  S7      30.14F
#TUTUILLA       N/A         46  41  83  CALM    30.17S
#UMAPINE 2E     N/A         50  42  74  CALM    30.12F
#WESTON SCHOOL  N/A         46  36  68  W9      30.11S

$$

ORZ508-140910-
SOUTHERN FOOTHILLS OF THE BLUES

CITY            SKY/WX      TMP DP  RH  WIND    PRES   REMARKS
#CONDON SCHOOL  N/A         42  38  86  SW8     30.08F
#FOSSIL SCHOOL  N/A         44  38  79  SE5     30.09F
#HEPPNER EOC    N/A         48  39  71  SW6     30.09F
#HEPPNER 4NE    N/A         43  38  82  SW7     30.16F
#LEXINGTON 2SE  N/A         49  41  74  CALM    30.12S
#MIKKALO        N/A         41  36  82  NW1     30.23S
#OLEX 4N        N/A         41  39  93  CALM    30.14R
#RUGGS 5NE      N/A         44  39  82  SW8     30.27F
#RUGGS 2SW      N/A         45  39  79  SW6     30.17R

$$

ORZ502-503-140910-
BLUE MOUNTAINS

CITY            SKY/WX      TMP DP  RH  WIND    PRES   REMARKS
MEACHAM         CLOUDY      34  32  92  CALM    30.13F
#BATTLE MTN DOT N/A         33  33  100 S8      N/A
#HEPPNER 15SE   N/A         36  28  72  N5      30.30S
#LADD CYN SMT   N/A         34  31  89  SE16    N/A    WCI 24
#LADD CREEK ODOTN/A         35  34  96  SW3     N/A
#LONG CREEK HS  N/A         40  39  96  CALM    N/A
#N POWDER DOT   N/A         36  34  92  W3      N/A
#PIKES PEAK     N/A         40  34  79  SW30G39 27.99S WCI 28
#TOLLGATE       N/A         32  31  96  S7      29.95F
#TROY SCHOOL    N/A         40  38  92  W7      30.03F
#UKIAH          N/A         38  36  92  CALM    30.14F
#WESTON 4E      N/A         39  36  89  S7      30.16S
$$

ORZ505-140910-
JOHN DAY BASIN

CITY            SKY/WX      TMP DP  RH  WIND    PRES   REMARKS
JOHN DAY        LGT RAIN    41  37  86  S10     30.19F
#DAYVILLE SCHOOLN/A         45  38  76  S7      30.14F
#MITCHELL       N/A         43  41  93  CALM    30.33F
#MITCHELL 8NW   N/A         43  37  79  SW8     30.39F
#MONUMENT HS    N/A         42  39  89  CALM    30.08F
#MT. VERNON 5SE N/A         38  35  89  CALM    30.14F
#WINLOCK        N/A         38  36  92  CALM    30.12F
$$

ORZ506-140910-
OCHOCO AND JOHN DAY HIGHLANDS

CITY            SKY/WX      TMP DP  RH  WIND    PRES   REMARKS
#HORSE RIDGE DO N/A         43  34  70  W8      N/A
#KEYES SMT DOT  N/A         38  34  85  SW30G39 N/A    WCI 26
#PAULINA SCHOOL N/A         48  23  37  N1      30.13F
#PINE MTN OBS   N/A         34  32  92  NW3     N/A
#PRAIRIE CITY   N/A         39  36  89  CALM    30.17R
#SENECA         N/A         34  N/A N/A CALM    N/A
#SENECA 9NW     N/A         33  32  96  CALM    30.26F
$$

ORZ049-140910-
GRANDE RONDE VALLEY

CITY            SKY/WX      TMP DP  RH  WIND    PRES   REMARKS
LA GRANDE       CLOUDY      39  32  76  S7      30.16F
#COVE           N/A         38  38  100 CALM    30.18F
#COVE SCHOOL    N/A         39  37  92  CALM    30.16F
#COVE 6NW       N/A         39  31  73  S8      30.26S
#ELGIN 3N       N/A         38  32  79  S9      30.12F
#ELGIN 1E       N/A         39  35  85  CALM    N/A
#IMBLER SCHOOL  N/A         37  35  92  S10     30.11F
#ISLAND CITY 4N N/A         47  46  96  CALM    30.20R
#LADD CYN DOT   N/A         38  35  89  SE12    N/A    WCI 30
#UNION 1S       N/A         39  36  89  S5      30.13F
$$

ORZ050-140910-
WALLOWA COUNTY

CITY            SKY/WX      TMP DP  RH  WIND    PRES   REMARKS
JOSEPH AIRPORT  CLOUDY      34  34  100 CALM    30.12F
#ENTERPRISE AP  N/A         33  30  89  CALM    30.03F
#ENTERPRISE HS  N/A         34  32  92  CALM    30.12F
#IMNAHA SCHOOL  N/A         47  34  60  S10     30.12F
#IMNAHA 10S     N/A         42  31  65  S2      30.11F
#JOSEPH 3N      N/A         33  29  85  CALM    30.11F
#JOSEPH 3W      N/A         33  30  89  NE1     29.92F
#LOSTINE        N/A         33  31  92  CALM    29.98F
#MT HOWARD 8000 N/A         28  24  85  W9      30.04R
#PROMISE 1S     N/A         35  32  89  E5      30.26F
#WALLOWA SCHOOL N/A         34  33  96  CALM    30.10F



$$



USA.gov is the U.S. government's official web portal to all federal, state and local government web resources and services.